Regional Weather Roundup
Issued by NWS Sioux Falls, SD

Home | Current Version | Previous Version | Graphics & Text | Print | Product List | Glossary On
Versions: 1 2 3 4 5 6 7 8 9 10 11 12 13 14 15 16 17 18 19 20 21 22 23 24 25 26 27 28 29 30 31 32 33 34 35 36 37 38 39 40 41 42 43 44 45 46 47 48 49 50
000
ASUS43 KFSD 150502
RWRFSD

WEATHER ROUNDUP FOR SE SOUTH DAKOTA/SW MINNESOTA/NW IOWA
NATIONAL WEATHER SERVICE SIOUX FALLS SD
1100 PM CST THU DEC 14 2017

NOTE: "FAIR" INDICATES FEW OR NO CLOUDS BELOW 12,000 FEET WITH NO
SIGNIFICANT WEATHER AND OR OBSTRUCTIONS TO VISIBILITY.


SDZ038>040-050-052>070-150600-
SOUTHEAST SOUTH DAKOTA

CITY           SKY/WX    TMP DP  RH WIND       PRES   REMARKS
BROOKINGS      FLURRIES  27  24  89 W10       30.03F WCI  17
CHAMBERLAIN    CLOUDY    32  29  89 W6        30.11F WCI  27
HURON          CLOUDY    32  26  78 W10       30.06F WCI  24
MADISON        CLOUDY    27  27 100 W12       30.04F WCI  16
MITCHELL       CLOUDY    31  26  82 W9        30.10F WCI  23
SIOUX FALLS    CLOUDY    28  24  85 W8        30.07F WCI  20
WINNER         CLOUDY    34  29  82 W10       30.12F WCI  26
YANKTON        CLOUDY    29  26  89 W5        30.13F WCI  24
$$

MNZ071-072-080-081-089-090-097-098-150600-
SOUTHWEST MINNESOTA

CITY           SKY/WX    TMP DP  RH WIND       PRES   REMARKS
FAIRMONT       FLURRIES  25  20  81 W12       30.05F WCI  14
JACKSON        CLOUDY    27  21  80 MISG      30.04F
LUVERNE        CLOUDY    27  21  80 W8        30.07F WCI  18
MARSHALL       CLOUDY    27  24  89 W10       30.02F WCI  17
MONTEVIDEO     CLOUDY    27  23  86 W5        30.00F WCI  21
PIPESTONE      CLOUDY    25  21  86 W8        30.04S WCI  16
REDWOOD FALLS  CLOUDY    27  22  81 SW7       30.02F WCI  19
WINDOM           N/A     25  12  58 SW8       30.03F WCI  16
WORTHINGTON    CLOUDY    25  23  92 W8        30.04F WCI  16
$$

IAZ001>003-012>014-020>022-031-032-NEZ013-014-SDZ071-150600-
NORTHWEST IOWA

CITY           SKY/WX    TMP DP  RH WIND       PRES   REMARKS
CHEROKEE       CLOUDY    27  24  86 NW6       30.11S WCI  21
DENISON        MIX PCPN  32  27  80 NW14      30.11R WCI  22
ESTHERVILLE    CLOUDY    24  20  84 W8        30.05F WCI  15
LE MARS        CLOUDY    30  25  80 NW6       30.11F WCI  24
ORANGE CITY    CLOUDY    28  27  93 NW5       30.09F WCI  23
SHELDON        CLOUDY    28  23  80 NW8       30.06F WCI  20
SIOUX CITY     CLOUDY    31  25  78 NW12      30.13S WCI  22
SPENCER        CLOUDY    25  22  88 W5        30.07F WCI  19
STORM LAKE     CLEAR     23  21  93 N9        30.08S WCI  13
$$

ABBREVIATIONS USED IN REMARKS
   TC - TEMPERATURE IN CELSIUS
  WCI - WIND CHILL INDEX
   HX - HEAT INDEX
  VSB - VISIBILITY




USA.gov is the U.S. government's official web portal to all federal, state and local government web resources and services.